Location: Newark
(50.0306°N, 2.3272°E)
Time: 23:01:44
(UTC+00:00)

A-11 Canister half - Pass Details

Date: 12 December 2019
Orbit: 1525 x 1684 km, 47.3° (Epoch: 24 January)

Event Time Altitude Azimuth Distance (km) Brightness Sun altitude
Rises 10:29:41 0° 284° (WNW) 4,941 11.3 15.1°
Reaches altitude 10° 10:32:56 10° 281° (W) 3,946 10.9 15.2°
Maximum altitude 10:42:43 56° 207° (SSW) 1,911 10.2 15.6°
Drops below altitude 10° 10:52:14 10° 132° (SE) 3,846 12.2 16.0°
Sets 10:55:22 0° 129° (SE) 4,809 12.4 16.1°
